GW3653 Weather Reports


Display with metric or nautical units.
time (UTC)temp
F
wind
direction
speed
MPH
gust
MPH
rain 1hr
in
rain 24hr
in
rain mn
in
humidity
%
barometer
mb
20260508164518 53 0.0 1.0 0.00 0.00 0.00 86 1031.0
20260508163517 53 0.0 0.0 0.00 0.00 0.00 85 1031.0
20260508162557 53 0.0 0.0 0.00 0.00 0.00 85 1031.1
20260508161517 53 0.0 0.0 0.00 0.00 0.00 84 1031.1
20260508160518 54 0.0 0.0 0.00 0.00 0.00 84 1031.0
20260508155518 54 0.0 1.0 0.00 0.00 0.00 84 1031.1
20260508154518 54 0.0 0.0 0.00 0.00 0.00 84 1031.2
20260508153518 54 0.0 3.0 0.00 0.00 0.00 84 1031.1
20260508152518 54 0.0 1.0 0.00 0.00 0.00 84 1031.4
20260508151518 54 0.0 1.0 0.00 0.00 0.00 83 1031.4
20260508150618 54 0.0 4.0 0.00 0.00 0.00 84 1031.4
20260508150018 54 0.0 1.0 0.00 0.00 0.00 84 1031.5
20260508145018 54 0.0 1.0 0.00 0.00 0.00 84 1031.5
20260508144021 54 0.0 1.0 0.00 0.00 0.00 84 1031.6
20260508143021 54 0.0 4.0 0.00 0.00 0.00 84 1031.8
20260508142041 55 0.0 1.0 0.00 0.00 0.00 84 1031.9
20260508141018 55 0.0 1.0 0.00 0.00 0.00 84 1031.9
20260508140103 55 0.0 1.0 0.00 0.00 0.00 84 1031.9
20260508135018 55 0.0 1.0 0.00 0.00 0.00 84 1031.8
20260508134025 55 0.0 1.0 0.00 0.00 0.00 84 1031.9
20260508133024 55 0.0 1.0 0.00 0.00 0.00 84 1031.9
20260508132038 55 0.0 1.0 0.00 0.00 0.00 84 1032.0
20260508131038 55 0.0 2.0 0.00 0.00 0.00 84 1031.9
20260508130037 55 0.0 1.0 0.00 0.00 0.00 85 1031.8
20260508125018 55 0.0 0.0 0.00 0.00 0.00 85 1031.8
20260508124017 55 0.0 0.0 0.00 0.00 0.00 84 1031.8
20260508123017 56 0.0 0.0 0.00 0.00 0.00 84 1031.7
20260508122017 56 0.0 0.0 0.00 0.00 0.00 84 1031.7
20260508121017 56 0.0 1.0 0.00 0.00 0.00 83 1031.7
20260508120017 56 0.0 1.0 0.00 0.00 0.00 83 1031.8
20260508115018 57 0.0 1.0 0.00 0.00 0.00 82 1031.7
20260508114017 57 0.0 1.0 0.00 0.00 0.00 82 1031.7
20260508113017 57 0.0 2.0 0.00 0.00 0.00 81 1031.6
20260508112017 57 0.0 1.0 0.00 0.00 0.00 81 1031.7
20260508111018 57 0.0 2.0 0.00 0.00 0.00 81 1031.7
20260508110037 57 0.0 4.0 0.00 0.00 0.00 81 1031.7
20260508105017 58 0.0 3.0 0.00 0.00 0.00 81 1031.8
20260508104017 58 0.0 3.0 0.00 0.00 0.00 80 1031.9
20260508103017 58 0.0 3.0 0.00 0.00 0.00 80 1031.8
20260508102017 58 0.0 3.0 0.00 0.00 0.00 79 1031.8
20260508101017 59 0.0 3.0 0.00 0.00 0.00 79 1031.5
20260508100018 59 0.0 2.0 0.00 0.00 0.00 78 1031.4
20260508095017 59 113 1.0 6.0 0.00 0.00 0.00 78 1031.2
20260508094017 59 0.0 2.0 0.00 0.00 0.00 78 1031.2
20260508093017 60 0.0 4.0 0.00 0.00 0.00 77 1031.2
20260508092037 60 68 1.0 5.0 0.00 0.00 0.00 76 1031.1
20260508091019 61 113 1.0 5.0 0.00 0.00 0.00 76 1031.2
20260508090019 61 0.0 3.0 0.00 0.00 0.00 75 1031.0
20260508085019 62 90 2.0 6.0 0.00 0.00 0.00 74 1030.9
20260508084019 63 90 1.0 6.0 0.00 0.00 0.00 74 1031.0
20260508083019 63 113 2.0 11.0 0.00 0.00 0.00 73 1031.0
20260508082120 64 90 1.0 4.0 0.00 0.00 0.00 72 1030.9
20260508081519 64 90 2.0 11.0 0.00 0.00 0.00 72 1031.0
20260508080519 64 90 2.0 7.0 0.00 0.00 0.00 72 1031.0
20260508075519 64 90 2.0 7.0 0.00 0.00 0.00 72 1031.0
20260508074519 65 90 2.0 8.0 0.00 0.00 0.00 71 1031.1
20260508073519 65 90 1.0 5.0 0.00 0.00 0.00 72 1031.0
20260508072519 65 90 2.0 7.0 0.00 0.00 0.00 71 1030.9
20260508071519 65 113 2.0 7.0 0.00 0.00 0.00 70 1030.9
20260508070519 66 113 1.0 6.0 0.00 0.00 0.00 70 1030.9
20260508065519 66 90 2.0 6.0 0.00 0.00 0.00 69 1031.0
20260508064559 66 90 1.0 6.0 0.00 0.00 0.00 70 1031.0
20260508063539 66 90 1.0 4.0 0.00 0.00 0.00 72 1030.9
20260508062519 67 113 3.0 7.0 0.00 0.00 0.00 70 1031.0
20260508061519 68 113 1.0 5.0 0.00 0.00 0.00 64 1031.1
20260508060519 68 90 1.0 4.0 0.00 0.00 0.00 61 1031.2
20260508055519 68 113 2.0 5.0 0.00 0.00 0.00 62 1031.2
20260508054519 68 90 2.0 6.0 0.00 0.00 0.00 63 1031.5
20260508053519 68 113 1.0 4.0 0.00 0.00 0.00 61 1031.7
20260508052519 67 113 1.0 3.0 0.00 0.00 0.00 63 1031.9
20260508051518 68 90 1.0 5.0 0.00 0.00 0.00 63 1031.9
20260508050519 67 113 1.0 5.0 0.00 0.00 0.00 63 1032.1
20260508045519 67 113 1.0 5.0 0.00 0.00 0.00 63 1032.2
20260508044518 68 113 2.0 6.0 0.00 0.00 0.00 62 1032.2
20260508043518 68 113 1.0 4.0 0.00 0.00 0.00 62 1032.6
20260508042519 68 113 1.0 6.0 0.00 0.00 0.00 63 1032.6
20260508041538 68 113 1.0 3.0 0.00 0.00 0.00 65 1032.8
20260508040518 67 113 1.0 4.0 0.00 0.00 0.00 65 1033.1
20260508035519 66 113 1.0 6.0 0.00 0.00 0.00 67 1033.3
20260508034518 66 90 1.0 4.0 0.00 0.00 0.00 67 1033.4
20260508033518 66 68 1.0 3.0 0.00 0.00 0.00 69 1033.5
20260508032539 65 90 1.0 3.0 0.00 0.00 0.00 70 1033.6
20260508031518 65 0.0 3.0 0.00 0.00 0.00 72 1033.9
20260508030518 64 0.0 4.0 0.00 0.00 0.00 73 1034.0
20260508025538 63 113 1.0 4.0 0.00 0.00 0.00 75 1034.2
20260508024519 62 113 1.0 5.0 0.00 0.00 0.00 75 1034.2
20260508023518 62 113 1.0 4.0 0.00 0.00 0.00 76 1034.4
20260508022519 61 0.0 2.0 0.00 0.00 0.00 78 1034.5
20260508021519 61 0.0 3.0 0.00 0.00 0.00 78 1034.5
20260508020539 60 0.0 3.0 0.00 0.00 0.00 79 1034.6
20260508015518 59 0.0 3.0 0.00 0.00 0.00 79 1034.6
20260508014538 59 90 1.0 2.0 0.00 0.00 0.00 80 1034.7
20260508013518 58 90 1.0 3.0 0.00 0.00 0.00 81 1034.7
20260508012518 58 0.0 2.0 0.00 0.00 0.00 81 1034.8
20260508011518 57 0.0 2.0 0.00 0.00 0.00 82 1034.9
20260508010518 57 0.0 2.0 0.00 0.00 0.00 82 1034.9
20260508005518 56 0.0 1.0 0.00 0.00 0.00 83 1034.8
20260508004538 55 0.0 1.0 0.00 0.00 0.00 85 1034.9
20260508003518 55 0.0 2.0 0.00 0.00 0.00 87 1034.9
20260508002518 54 0.0 1.0 0.00 0.00 0.00 90 1034.9
20260508001518 53 0.0 0.0 0.00 0.01 0.00 93 1035.0
20260508000518 51 0.0 1.0 0.00 0.01 0.00 93 1034.9
20260507235538 50 0.0 1.0 0.00 0.01 0.00 93 1034.8
20260507234538 50 0.0 2.0 0.00 0.01 0.00 93 1034.8
20260507233518 49 0.0 0.0 0.00 0.01 0.00 93 1034.7
20260507232558 49 0.0 0.0 0.00 0.01 0.00 93 1034.7
20260507231518 48 0.0 0.0 0.00 0.01 0.00 92 1034.6
20260507230518 48 0.0 0.0 0.00 0.01 0.00 92 1034.6
20260507225518 48 0.0 0.0 0.00 0.01 0.00 92 1034.7
20260507224518 48 0.0 0.0 0.00 0.01 0.00 92 1034.5
20260507223518 49 0.0 0.0 0.00 0.01 0.00 92 1034.5
20260507222518 49 0.0 1.0 0.00 0.01 0.00 92 1034.3
20260507221538 49 0.0 1.0 0.00 0.01 0.00 92 1034.2
20260507220518 49 0.0 0.0 0.00 0.01 0.00 92 1034.2
20260507215518 48 0.0 0.0 0.00 0.01 0.00 91 1034.2
20260507214518 48 0.0 0.0 0.00 0.01 0.00 91 1034.3
20260507213518 49 0.0 0.0 0.00 0.01 0.00 91 1034.2
20260507212517 50 0.0 0.0 0.00 0.01 0.00 91 1034.1
20260507211517 50 0.0 0.0 0.00 0.01 0.00 91 1034.2
20260507210557 50 0.0 0.0 0.00 0.01 0.00 91 1034.0
20260507205518 50 0.0 0.0 0.00 0.01 0.00 91 1034.0
20260507204518 50 0.0 0.0 0.00 0.01 0.00 90 1033.9
20260507203537 50 0.0 0.0 0.00 0.01 0.00 90 1033.7
20260507202537 51 0.0 0.0 0.00 0.01 0.00 90 1033.7
20260507201518 51 0.0 0.0 0.00 0.01 0.00 90 1033.8
20260507200538 51 0.0 0.0 0.00 0.01 0.00 89 1033.7
20260507195517 51 0.0 0.0 0.00 0.01 0.00 89 1033.7
20260507194517 52 0.0 0.0 0.00 0.01 0.00 88 1033.7
20260507193517 52 0.0 0.0 0.00 0.01 0.00 87 1033.8
20260507192517 53 0.0 0.0 0.00 0.01 0.00 87 1033.7
20260507191517 54 0.0 1.0 0.00 0.01 0.00 87 1033.9
20260507190537 54 0.0 0.0 0.00 0.02 0.00 87 1033.9
20260507185517 55 0.0 0.0 0.00 0.03 0.00 87 1033.7
20260507184537 55 0.0 1.0 0.00 0.06 0.00 87 1033.7
20260507183517 55 0.0 1.0 0.00 0.09 0.00 87 1033.7
20260507182517 55 0.0 2.0 0.00 0.09 0.00 88 1033.5
20260507181517 55 0.0 1.0 0.00 0.09 0.00 88 1033.5
20260507180517 55 0.0 4.0 0.00 0.09 0.00 89 1033.6
20260507175557 54 0.0 2.0 0.00 0.10 0.00 90 1033.5
20260507174517 54 0.0 1.0 0.00 0.10 0.00 91 1033.5
20260507173518 54 0.0 1.0 0.00 0.11 0.00 91 1033.7
20260507172519 54 0.0 1.0 0.00 0.11 0.00 91 1033.6
20260507171519 54 0.0 2.0 0.00 0.11 0.00 91 1033.7
20260507170519 54 0.0 1.0 0.00 0.12 0.00 91 1033.8
20260507165519 54 0.0 0.0 0.00 0.12 0.00 91 1033.9